Location: Ciserano
(45.5833°N, 9.6000°E)
Time: 10:50:00
(UTC+00:00)

ERS-2 - Pass Details

Date: 29 November 2020
Orbit: 492 x 498 km, 98.6° (Epoch: 25 January)

Event Time Altitude Azimuth Distance (km) Brightness Sun altitude
Rises 04:15:24 0° 169° (SSE) 2,563 6.0 -24.6°
Reaches altitude 10° 04:17:27 10° 171° (S) 1,687 5.0 -24.2°
Enters shadow 04:18:54 23° 174° (S) 1,093 3.9 -24.0°
